Location: Berry Creek
(51.8849°N, 111.7341°W)
Time: 17:14:44
(UTC-07:00)

Daily predictions for brighter satellites

Satellite Brightness Start Highest point End
(mag) Time Altitude Azimuth Time Altitude Azimuth Time Altitude Azimuth
IDEFIX/ARIANE 42P 4.4 18:18:42 10° SSW 18:23:37 39° W 18:28:33 10° NNW
USA 229 DEB 4.3 18:17:38 10° NW 18:24:21 43° NNE 18:31:09 10° E
USA 229 4.3 18:17:45 10° NW 18:24:26 43° NNE 18:31:14 10° E
Cosmos 1745 Rocket 4.1 18:22:05 10° S 18:28:14 58° E 18:34:22 10° NNE
NOSS 3-4 (A) 4.1 18:26:27 10° WSW 18:32:45 61° NW 18:39:25 10° NE
NOSS 3-4 (C) 4.1 18:26:33 10° WSW 18:32:52 61° NW 18:39:32 10° NE
NOAA 12 4.1 18:27:48 10° SSE 18:33:04 66° ENE 18:38:22 10° N
HJ-1C 4.4 18:31:00 10° SE 18:33:51 26° ENE 18:36:43 10° N
Cosmos 1825 4.4 18:31:06 10° SW 18:34:26 28° WNW 18:37:49 10° N
METEOR-M 4.1 18:31:22 10° SSE 18:36:40 68° ENE 18:42:00 10° N
Cosmos 2360 Rocket 2.4 18:31:35 10° NNW 18:37:09 53° NE 18:42:41 10° SE
Cosmos 1980 Rocket 4.3 18:32:39 10° NW 18:37:41 33° WSW 18:42:42 10° SSW
NOSS 2-2 (E) 3.8 18:34:12 10° SSW 18:38:21 60° SE 18:43:24 10° NE
Cosmos 2219 Rocket 3.4 18:35:11 10° NNW 18:39:40 24° NE 18:44:08 10° E
Cosmos 1975 Rocket 3.7 18:36:13 10° NNW 18:40:30 62° W 18:44:46 10° S
ATLAS 2AS CENTAUR R/B 4.1 18:33:38 10° WNW 18:41:03 37° N 18:48:29 10° ENE
SKYMED 2 3.5 18:38:07 10° NNE 18:42:29 73° ESE 18:46:49 10° S
NOSS 5 (C) 4.5 18:39:25 10° SSW 18:42:36 49° SE 18:45:36 10° NE
USA 215 3.5 18:42:24 10° ENE 18:48:55 71° NNW 18:55:24 10° W
Cosmos 1633 3.8 18:46:18 10° SE 18:49:09 21° E 18:52:01 10° NE
SL-16 R/B 4.1 18:47:32 10° NNW 18:50:39 15° NNE 18:53:46 10° NE
Cosmos 1025 Rocket 4.3 18:48:39 10° NNE 18:52:02 21° ENE 18:55:25 10° ESE
FREGAT/IRIS 2.6 18:49:39 10° SSE 18:52:42 66° ENE 18:55:48 10° N
NOSS 2-2 (D) 3.6 18:54:37 10° SW 18:58:48 75° SE 19:03:54 10° NE
Cosmos 1536 Rocket 3.5 18:54:53 10° N 18:59:22 73° ENE 19:03:50 10° SSE
ALOS 2.3 18:56:53 10° SSE 19:01:29 61° ENE 19:06:07 10° N
CZ-4B DEB 4.4 19:04:00 16° ENE 19:04:00 16° ENE 19:05:55 10° NNE
Cosmos 2333 Rocket 3.2 19:00:38 10° NNW 19:05:34 28° NE 19:09:02 16° E
BREEZE-M DEB (TANK) 3.0 19:06:33 10° W 19:08:39 32° SSW 19:12:05 11° SE
SL-16 R/B 3.4 19:05:42 10° NW 19:11:06 46° WSW 19:16:29 10° S
Cosmos 1818 4.0 19:06:11 10° S 19:11:13 40° ESE 19:15:58 12° NE
Cosmos 2082 Rocket 3.8 19:06:59 10° WSW 19:12:06 33° NW 19:17:16 10° NNE
SJ-6B 3.0 19:08:10 10° S 19:12:11 76° WSW 19:16:08 10° NNW
Cosmos 1340 2.5 19:09:24 10° N 19:13:14 80° ENE 19:17:01 10° SSE
ATLAS CENTAUR R/B 3.2 19:09:56 10° W 19:13:45 28° NNW 19:17:23 10° NNE
NOSS 2-2 (C) 3.7 19:11:49 10° SW 19:16:02 84° NW 19:21:15 10° NE
Cosmos 1238 Rocket 2.0 19:15:57 10° N 19:19:08 71° E 19:22:04 10° SSE
Resurs 01 Rocket 1.5 19:15:35 10° SSE 19:19:57 71° ENE 19:24:23 10° N
FengYun 1-2 T 4.2 19:15:29 10° SSE 19:20:58 85° ENE 19:26:32 10° NNW
TSX-5 4.2 19:18:49 10° S 19:21:35 28° ESE 19:21:45 28° ESE
Meteor 1-19 Rocket 4.2 19:16:06 10° N 19:21:46 76° ENE 19:27:30 10° SSE
Meteor 1-28 Rocket 4.1 19:18:17 10° N 19:22:00 52° WNW 19:25:43 10° SSW
Cosmos 1570 Rocket 4.0 19:18:57 10° NNW 19:24:10 62° ENE 19:29:15 11° SE
Cosmos 407 Rocket 3.4 19:19:13 10° SSW 19:24:28 76° ESE 19:29:49 10° NNE
Cosmos 676 Rocket 4.0 19:21:36 10° S 19:26:41 58° ESE 19:31:50 10° NNE
Cosmos 1939 Rocket 4.1 19:27:33 22° ENE 19:27:33 22° ENE 19:30:30 10° NNE
Cosmos 2322 Rocket 3.9 19:23:50 10° NW 19:28:49 34° WSW 19:33:48 10° S
Genesis I 3.1 19:25:42 10° NW 19:29:41 79° NE 19:31:56 24° SE
Cosmos 2181 Rocket 4.0 19:23:34 10° N 19:29:49 89° E 19:36:08 10° S
COSMO-SKYMED 1 3.9 19:26:21 10° N 19:30:27 41° WNW 19:34:32 10° SW
Cosmos 807 4.5 19:28:26 10° N 19:31:47 86° E 19:35:50 10° S
Cosmos 1300 Rocket 3.5 19:31:54 10° S 19:36:16 63° E 19:40:40 10° NNE
Meteor 1-13 Rocket 4.3 19:30:50 10° NNW 19:36:23 78° W 19:41:58 10° S
Cosmos 1536 3.2 19:33:34 10° SSE 19:37:17 39° E 19:41:01 10° NNE
Cosmos 2322 4.0 19:36:15 10° NW 19:41:58 68° WSW 19:47:38 10° SSE
USA 186 1.9 19:42:24 47° NE 19:42:24 47° NE 19:44:57 10° N
CZ-2D R/B 3.1 19:38:31 10° SSE 19:42:19 78° ENE 19:46:10 10° NNW
Cosmos 405 Rocket 3.6 19:38:47 10° N 19:42:19 32° ENE 19:42:19 32° ENE
Resurs 1-3 3.6 19:38:07 10° SSE 19:42:30 85° WSW 19:46:56 10° NNW
Meteor 1-23 Rocket 4.2 19:42:12 10° N 19:48:04 74° ENE 19:53:50 10° SSE
Cosmos 2208 Rocket 4.0 19:43:03 10° NNW 19:48:34 85° ENE 19:53:07 15° SSE
Cosmos 1140 Rocket 3.5 19:44:22 10° S 19:49:23 56° ESE 19:54:28 10° NNE
FENGYUN 3A 4.2 19:44:40 10° S 19:50:00 59° W 19:55:24 10° NNW
Cosmos 1190 Rocket 4.4 19:45:07 10° SW 19:50:16 63° WNW 19:55:28 10° NNE
H-2A R/B 3.0 19:47:47 10° S 19:51:28 64° W 19:55:14 10° NNW
Cosmos 468 Rocket 4.3 19:47:39 10° NNW 19:52:41 45° ENE 19:54:05 37° E
SAR-Lupe-1 4.0 19:51:13 25° SSE 19:53:12 90° WNW 19:56:49 10° NNW
Cosmos 2074 Rocket 4.0 19:48:33 10° SSE 19:54:38 55° E 20:00:45 10° NNE
COSMOS 2428 2.6 19:49:24 10° NNW 19:55:09 89° ENE 19:59:03 21° SSE
Cosmos 2184 Rocket 4.1 19:49:18 10° SSE 19:55:25 54° E 20:01:30 10° NNE
Cosmos 1709 Rocket 4.2 19:49:13 10° SSW 19:55:26 75° WNW 20:01:38 10° N
Meteor 2-4 Rocket 3.7 19:49:59 10° NNW 19:55:40 84° W 20:01:08 10° S
Cosmos 2237 4.3 19:49:55 10° NNW 19:55:40 77° WSW 20:00:37 14° SSE
SAR-Lupe-4 3.8 19:55:00 16° S 19:57:44 69° WSW 20:01:20 10° NNW
Cosmos 2333 4.1 19:52:50 10° NNW 19:58:36 84° ENE 20:02:01 26° SSE
Spot 2 Rocket 4.1 19:53:47 10° S 19:58:46 59° WSW 20:03:48 10° NNW
Helios 1A 3.0 19:58:08 17° SSE 20:01:22 82° WSW 20:05:34 10° NNW
Cosmos 614 Rocket 3.9 19:56:39 10° S 20:01:35 54° ESE 20:05:20 17° NE
CZ-4B DEB 4.4 20:03:12 76° ESE 20:03:20 78° ENE 20:06:56 10° NNW
Cosmos 2237 Rocket 2.6 19:59:03 10° NNW 20:04:33 45° NE 20:05:44 40° E
Cosmos 1892 Rocket 3.6 20:02:45 10° N 20:06:54 54° ENE 20:06:54 54° ENE
Okean 1 Rocket 3.1 20:02:49 10° S 20:07:19 86° W 20:11:51 10° N
Cosmos 1814 Rocket 4.2 20:02:58 10° NNW 20:08:00 46° ENE 20:08:29 45° ENE
Cosmos 1850 Rocket 4.1 20:03:22 10° S 20:08:31 54° ESE 20:11:51 22° NE
Nadezhda 3 Rocket 4.0 20:04:07 10° N 20:10:09 53° ENE 20:12:03 39° SE
GEOS 3 Rocket 3.5 20:09:23 30° NE 20:12:05 77° SE 20:17:21 10° SW
Envisat 2.9 20:13:16 43° SE 20:14:54 72° ENE 20:20:00 10° NNW
Cosmos 2285 Rocket 4.0 20:09:15 10° NNW 20:15:45 90° W 20:19:32 27° SSE
USA 229 DEB 3.8 20:08:48 10° NW 20:15:55 80° SW 20:19:44 31° SE
USA 229 3.8 20:08:55 10° NW 20:16:01 81° SW 20:19:48 31° SE
Helios 1B rocket 3.8 20:12:14 10° NNE 20:20:32 10° S 20:20:33 10° S
Meteor 1-11 Rocket 4.0 20:11:40 10° SSW 20:17:29 74° WNW 20:23:27 10° N
Cosmos 1954 Rocket 4.2 20:12:44 10° SSW 20:17:55 73° WNW 20:23:12 10° NNE
Okean 1-7 Rocket 4.5 20:16:08 10° NNW 20:20:33 51° W 20:24:55 10° S
Cosmos 2360 Rocket 3.8 20:15:56 10° NW 20:20:57 33° WSW 20:25:57 10° SSW
Cosmos 2219 3.4 20:18:18 10° S 20:23:09 50° SE 20:23:09 50° SE
Cosmos 1633 4.2 20:20:34 10° SW 20:23:58 35° WNW 20:27:25 10° N
Cosmos 2154 Rocket 4.1 20:23:57 49° E 20:24:06 49° E 20:30:10 10° NNE
Cosmos 2219 Rocket 2.0 20:18:48 10° NNW 20:24:27 86° ENE 20:25:54 52° SE
H-2A R/B 3.7 20:26:53 21° NE 20:26:53 21° NE 20:29:37 10° N
ERS-1 Rocket 3.0 20:25:34 60° ENE 20:25:34 60° ENE 20:30:29 10° N
ARGOS 4.1 20:28:47 31° NE 20:28:47 31° NE 20:32:33 10° N
Okean 2 3.5 20:23:47 10° NNW 20:27:57 75° W 20:28:11 72° SW
Cosmos 371 Rocket 4.4 20:23:52 10° NNW 20:27:14 30° NNE 20:27:14 30° NNE
NOSS 3-1 (A) 4.0 20:21:22 10° NW 20:28:30 63° NE 20:30:52 45° E
Cosmos 1025 Rocket 3.8 20:25:43 10° NNW 20:29:58 52° W 20:32:29 23° SSW
USA 215 3.6 20:29:06 37° ENE 20:31:36 58° N 20:37:59 10° WNW
ATLAS 2AS CENTAUR R/B 3.8 20:26:26 10° NW 20:34:05 41° NNE 20:36:51 32° ENE
SL-16 R/B 2.9 20:31:09 10° NNW 20:36:07 38° NE 20:36:07 38° NE
SJ-11-01 4.4 20:38:53 61° SSW 20:39:35 73° WSW 20:44:23 10° NNW
Terra 4.2 20:46:57 12° NNE 20:46:57 12° NNE 20:47:35 10° NNE
Meteor 2-13 Rocket 4.3 20:43:03 10° S 20:49:06 84° E 20:55:15 10° NNE
NOSS 3-1 (C) 3.9 20:42:01 10° NW 20:49:19 85° NE 20:51:11 57° SE
Cosmos 2333 Rocket 2.2 20:44:41 10° NNW 20:50:27 78° WSW 20:51:05 69° S
ATLAS CENTAUR R/B 3.8 20:51:42 10° NW 20:54:02 14° N 20:54:30 14° N
Cosmos 1818 4.2 20:49:23 10° WSW 20:54:44 52° NW 20:56:40 36° NNE
Resurs 01 Rocket 4.4 20:54:09 10° SW 20:56:56 16° W 20:59:44 10° NW
SPOT 5 4.0 20:59:24 36° N 20:59:24 36° N 21:02:29 10° N
Cosmos 1741 Rocket 4.2 20:53:15 10° SSW 20:58:28 69° WNW 20:59:12 60° NNW
Cosmos 841 Rocket 4.1 20:53:57 10° NNW 20:57:46 47° N 20:57:46 47° N
NOSS 0 Rocket 4.1 20:56:18 10° NW 21:02:25 65° WSW 21:03:16 58° SSW
Cosmos 1980 3.7 20:56:53 10° NNW 21:02:25 76° W 21:02:25 76° W
Cosmos 1763 Rocket 4.2 21:09:10 10° NNW 21:12:54 49° NNW 21:12:54 49° NNW
Cosmos 2237 Rocket 3.4 21:43:17 10° NW 21:47:35 37° W 21:47:35 37° W
H-2A R/B 4.0 22:07:30 26° NNW 22:07:30 26° NNW 22:09:49 10° NNW
Cosmos 2219 Rocket 4.3 22:03:54 10° WNW 22:07:40 19° W 22:07:40 19° W
USA 215 4.0 22:16:26 47° NW 22:16:26 47° NW 22:20:55 10° WNW
SL-16 R/B 4.0 22:15:18 10° NW 22:18:01 27° NW 22:18:01 27° NW
ATLAS 2AS CENTAUR R/B 3.5 22:18:02 10° NW 22:24:17 56° NNW 22:24:17 56° NNW
